Lapse_Rate
3.6 3.2 3.6 2.8 3.0 2.6 2.4 2.6 2.7 4.0 3.9 4.4 4.1 3.0 2.8 2.7 2.6 2.4 2.2 2.4 3.4 3.9
3.8 3.4 3.4 3.9 3.7 3.7 3.3 3.3 4.1 4.0 4.9 4.4 3.6 3.4 3.3 3.0 3.3 2.9 2.3 3.2 3.2 3.3
4.0 4.3 4.2 4.0 4.3 4.2 4.7 4.2 3.9 3.5 4.7 4.0 3.9 3.1 2.6 2.3 2.9 3.4 3.1 2.8 2.8 2.5
4.3 4.5 4.5 4.4 4.6 4.9 5.4 5.2 4.4 4.7 4.8 4.6 4.0 2.9 3.1 3.4 3.5 3.2 3.1 2.8 2.6 3.0
4.6 4.3 4.4 4.3 4.5 5.0 4.7 5.1 4.8 4.4 4.1 3.9 3.6 3.3 3.3 3.4 3.1 2.9 2.8 2.8 3.3 3.4
4.6 4.3 4.2 4.3 4.1 3.9 4.5 4.4 4.4 4.9 4.5 3.8 3.7 3.2 3.4 3.1 2.9 3.0 3.1 3.6 3.2 3.5
4.0 3.9 3.8 4.0 3.6 3.8 4.0 4.0 4.0 3.9 3.7 3.8 3.5 3.1 2.8 2.6 3.1 3.4 3.0 2.7 2.7 3.2
3.9 3.7 3.6 3.5 3.6 3.7 3.4 4.0 4.0 3.7 3.3 3.0 2.7 2.9 2.6 2.8 3.0 3.0 2.8 2.4 2.3 2.6
3.2 3.3 3.2 3.0 3.0 2.8 3.0 3.1 2.6 2.4 2.2 2.0 2.7 3.1 3.1 2.9 2.9 2.5 2.5 2.6 2.6 2.7
2.6 2.7 2.5 2.2 2.0 2.6 2.8 2.3 2.0 2.0 2.3 2.7 2.8 3.7 3.8 3.1 2.5 2.4 2.6 3.0 3.1 3.1
2.4 2.4 2.3 2.4 2.6 2.3 2.3 2.8 2.4 2.2 2.2 2.4 2.9 4.2 4.0 2.9 2.5 2.7 2.9 3.2 3.4 3.7
1.9 1.9 1.8 2.0 1.7 1.6 1.8 2.0 2.2 2.3 2.3 3.0 3.2 4.0 4.2 3.1 2.8 3.0 3.1 3.1 3.2 3.5
2.9 2.7 2.7 2.6 2.5 2.3 2.7 2.7 2.5 2.2 2.6 3.2 3.4 4.4 4.5 3.7 3.7 4.0 4.0 3.5 3.3 4.2
1.8 2.1 2.4 2.5 2.6 2.5 2.3 2.2 2.3 2.8 3.2 3.6 4.1 4.7 4.8 4.7 4.9 5.1 4.0 3.5 3.5 4.6
Wind_Speed
9 7 6 7 5 3 3 5 6 6 8 10 8 8 9 5 4 3 3 6 4 3
8 9 8 9 6 4 4 4 4 5 6 8 10 8 8 6 6 5 4 5 4 2
10 9 8 7 8 7 6 6 5 4 5 4 5 6 6 5 4 5 4 3 5 3
8 9 9 8 8 8 6 9 9 8 7 6 6 6 5 5 6 5 4 3 4 4
7 8 8 8 8 7 7 6 7 6 6 8 7 7 7 6 5 5 5 5 5 6
8 8 8 8 8 8 7 6 6 7 8 7 7 6 6 5 5 5 6 7 6 6
6 6 6 7 7 8 9 8 7 7 6 5 6 6 5 5 6 7 5 5 5 6
4 4 4 5 5 6 7 6 6 6 5 4 4 4 6 7 7 6 5 5 5 5
4 4 4 4 5 5 6 6 6 5 5 6 4 9 12 10 7 7 7 6 5 4
5 4 3 3 4 4 6 5 5 5 5 4 4 9 11 12 5 5 5 5 5 4
3 4 4 5 5 4 3 4 4 4 4 4 3 9 11 11 6 5 6 5 4 4
3 5 5 5 6 4 5 4 4 4 6 6 5 9 11 10 5 5 5 4 3 3
3 4 4 4 3 2 2 3 4 4 3 5 4 7 10 7 4 4 3 3 3 6
6 6 6 5 3 5 6 6 6 6 6 6 6 7 8 7 2 2 2 2 1 2
Wind_Direction
169 163 177 169 174 165 134 136 146 172 174 176 173 155 153 149 171 155 145 143 147 152
167 164 176 179 163 165 149 137 165 170 183 178 167 161 162 153 152 165 151 145 145 182
175 177 172 167 183 187 174 156 174 189 189 167 167 149 139 125 141 165 147 158 173 186
179 174 172 172 182 191 186 189 183 184 181 176 156 139 140 152 163 171 171 177 164 189
163 166 168 169 175 172 185 186 175 174 183 174 168 163 166 175 171 179 185 182 184 184
176 176 180 180 176 174 182 194 194 192 185 165 169 170 184 179 175 188 186 191 185 185
181 189 179 178 172 177 176 169 179 175 160 174 178 184 180 172 182 189 187 184 178 189
166 174 169 170 174 176 169 165 161 162 176 180 190 185 179 177 175 169 170 165 176 193
146 148 146 146 150 147 152 167 165 176 185 180 190 180 176 163 171 169 166 171 187 186
142 140 156 130 116 163 174 166 149 147 150 168 177 174 171 162 149 156 166 172 177 181
109 120 110 127 139 136 131 127 119 123 135 143 167 169 158 151 148 155 169 165 159 168
130 134 140 140 141 140 136 135 143 152 155 153 158 163 158 145 142 144 147 144 146 152
78 88 79 83 111 89 96 112 112 113 107 121 124 148 142 138 139 142 122 119 181 205
51 66 88 94 81 82 78 78 71 81 76 83 82 80 97 108 113 123 149 174 212 252